CZ-6A DEB, 55210

Orbit data source: Space-Track

CZ-6A DEB, 55210 is space debris in SSO originally from a launch on Fri, 11 Nov 2022 UTC launched from the Taiyaun Space Center, China (TSC). Debris objects in space refer to the collection of defunct objects orbiting the Earth. Examples of debris include non-operational satellites, rocket bodies, and fragments generated from explosions, collisions, or faulty payload assembly.

Loading next visibility...
Identifier
55210, 2022-151WB
Orbit
SSO
Country
Flag of CNCN / PRC
Related business
Manufacturer
SAST
Mission
Spacecraft
Bus & Motor
Unknown
Mass
Unknown
Launch date (UTC)
2022-11-11 (4 years ago)
Launch vehicle
Unknown
Launch site
Taiyaun Space Center, China (TSC)
Object type
Payload
Rocket body
Debris
Shape & HBR
Unknown shape, 0.1 m
Radar Cross Section
Small (<0.1 m²)

Expand to show TLE details & history
Last TLE update: 19 hours ago

TLE from 19 hours ago
0 CZ-6A DEB
1 55210U 22151WB  26193.64308424  .00002443  00000-0  80383-3 0  9994
2 55210  98.7459 228.2285 0037613 219.5581 140.2860 14.38737879185582
Epoch: 2026-07-12T15:26Z
TLE epoch observation values (Epoch: 2026-07-12T15:26:02.478Z)
Latitude
0.00002°
Longitude
66.17916°
Altitude
786.317 km
Speed
7.45 km/s
True Right ascension
15h 12m 54s
True Declination
0° 00' 00"
Sunlit
Object was in daylight at epoch
Visualization orbit readout
Latitude
Unknown
Longitude
Unknown
Altitude
Unknown
Speed
Unknown
Apparent Right ascension
Unknown
Apparent Declination
Unknown
Sunlit
N/A
Visualization observer readout
Local Sidereal Time
22:23:38
Azimuth
Unknown
Elevation
Unknown
Doppler factor
Unknown
Orbital elements
Apogee altitude
786.655 km
Perigee altitude
732.959 km
Semi-major axis
7,137.944 km
Eccentricity
0.00376
Inclination
98.7459°
RAAN
228.2285°
Arg. of periapsis
219.5581°
True anomaly
140.5604°
Mean anomaly
140.286°
Eccentric anomaly
140.4233°
Mean motion
3.59901 °/min
Orbital period
100.03 mins
BSTAR
0.00080383
Loading maneuver chart data...
Computing Atmospheric mass density...
Loading historical data...
Loading historical data...
Loading historical data...
Loading historical data...
Loading historical data...
Loading historical data...
Loading historical data...

Documentation

Showing up to 5 results
|